SANTA FE DAM CA US current weather conditions

sailwx.info

Wind from 220 at 3 knots gusting 8

Air temperature 28.3° C
Dewpoint 10.9° C

Last reported at 2014-Oct-25 17:57 UTC.
Time now 2014-Oct-25 19:09 UTC

Location: N 34°08' W 117°57'.
View on Google Maps.

See reports from other nearby stations

  
Tides and Currents Weather Stations Pressure Air Temp Water Temp Dewpoint Dewpoint Depression Visibility Wind Speed Wind Dir Waves Ship Positions
date/time (UTC)wind fromknots sea level pressurealtimeterstation pressurevisibilityair tempwater tempwave heightnotes
2014-Oct-25 17:57 220 3 gusting 8 28.3
2014-Oct-25 16:57 050 1 gusting 5 27.2
2014-Oct-25 15:57 096 1 gusting 4 22.2
2014-Oct-25 14:57 251 2 gusting 4 17.8
2014-Oct-25 13:57 232 1 gusting 6 17.8
2014-Oct-25 12:57 160 3 gusting 6 18.3
2014-Oct-25 11:57 324 1 gusting 8 16.1
2014-Oct-25 10:57 229 3 gusting 9 16.1
2014-Oct-25 09:57 090 1 gusting 3 16.7
2014-Oct-25 08:57 284 0 gusting 3 17.2
2014-Oct-25 07:57 070 1 gusting 5 18.9
2014-Oct-25 06:57 310 2 gusting 6 20.0
2014-Oct-25 05:57 331 4 gusting 7 20.6
2014-Oct-25 04:57 011 6 gusting 41 23.3
2014-Oct-25 03:57 057 5 gusting 10 25.6
2014-Oct-25 02:57 023 1 gusting 5 23.9
2014-Oct-25 01:57 347 0 gusting 4 23.9
2014-Oct-25 00:57 192 2 gusting 6 29.4
2014-Oct-24 23:57 230 5 gusting 12 31.7
2014-Oct-24 22:57 240 6 gusting 12 33.9
2014-Oct-24 21:57 259 6 gusting 12 33.9
2014-Oct-24 20:57 216 4 gusting 16 35.6
2014-Oct-24 19:57 209 4 gusting 9 35.0
2014-Oct-24 18:57 332 3 gusting 9 34.4
2014-Oct-24 17:57 331 3 gusting 7 31.7
2014-Oct-24 16:57 103 2 gusting 6 28.9
2014-Oct-24 15:57 136 1 gusting 3 26.1
2014-Oct-24 14:57 052 1 gusting 6 20.6
2014-Oct-24 13:57 053 1 gusting 5 16.1
2014-Oct-24 12:57 243 2 gusting 6 17.2
2014-Oct-24 11:57 065 1 gusting 5 16.1
2014-Oct-24 10:57 062 2 gusting 3 15.0
2014-Oct-24 09:57 082 0 gusting 8 16.1
2014-Oct-24 08:57 024 3 gusting 9 19.4
2014-Oct-24 07:57 063 0 gusting 10 18.3
2014-Oct-24 06:57 033 2 gusting 7 21.1
2014-Oct-24 05:57 096 0 gusting 40 19.4
2014-Oct-24 04:57 359 5 gusting 9 21.7
2014-Oct-24 03:57 024 1 gusting 3 19.4
2014-Oct-24 02:57 253 0 gusting 4 21.1
2014-Oct-24 01:57 225 2 gusting 6 24.4
2014-Oct-24 00:57 231 4 gusting 7 28.3
2014-Oct-23 23:57 236 4 gusting 7 31.7
2014-Oct-23 22:57 219 5 gusting 9 32.8
2014-Oct-23 21:57 243 4 gusting 11 33.3
2014-Oct-23 20:57 223 5 gusting 10 32.8
2014-Oct-23 19:57 236 4 gusting 7 32.2